Time,TemperatureF,DewpointF,PressureIn,WindDirection,WindDirectionDegrees,WindSpeedMPH,WindSpeedGustMPH,Humidity,HourlyPrecipIn,Conditions,Clouds,dailyrainin,SolarRadiationWatts/m^2,SoftwareType,DateUTC
2013-07-17 00:00:00,78.1,57.4,30.13,NNW,346,0.0,0.0,49,0.00,,,0.00,0,Wunderground v.1.15,2013-07-17 04:00:00,
2013-07-17 00:05:00,78.0,56.7,30.13,NNW,346,0.0,0.0,48,0.00,,,0.00,0,Wunderground v.1.15,2013-07-17 04:05:00,
2013-07-17 00:10:00,78.0,56.7,30.13,NNW,346,0.0,0.0,48,0.00,,,0.00,0,Wunderground v.1.15,2013-07-17 04:10:00,
2013-07-17 00:20:00,77.8,56.0,30.13,NNW,346,0.0,1.0,47,0.00,,,0.00,0,Wunderground v.1.15,2013-07-17 04:20:00,
2013-07-17 00:25:00,77.7,55.9,30.13,NNW,346,1.0,2.0,47,0.00,,,0.00,0,Wunderground v.1.15,2013-07-17 04:25:00,
2013-07-17 00:35:00,77.6,55.8,30.12,NNW,346,1.0,2.0,47,0.00,,,0.00,0,Wunderground v.1.15,2013-07-17 04:35:00,
2013-07-17 00:45:00,77.6,55.2,30.13,NNW,346,3.0,3.0,46,0.00,,,0.00,0,Wunderground v.1.15,2013-07-17 04:45:00,
2013-07-17 00:50:00,77.7,54.0,30.13,North,350,3.0,3.0,44,0.00,,,0.00,0,Wunderground v.1.15,2013-07-17 04:50:00,
2013-07-17 01:00:00,78.0,54.9,30.12,North,353,4.0,4.0,45,0.00,,,0.00,0,Wunderground v.1.15,2013-07-17 05:00:00,
2013-07-17 01:05:00,78.2,56.3,30.12,NNW,344,4.0,4.0,47,0.00,,,0.00,0,Wunderground v.1.15,2013-07-17 05:05:00,
2013-07-17 01:15:00,78.1,57.9,30.12,North,358,3.0,4.0,50,0.00,,,0.00,0,Wunderground v.1.15,2013-07-17 05:15:00,
2013-07-17 01:20:00,78.1,57.9,30.12,North,357,4.0,4.0,50,0.00,,,0.00,0,Wunderground v.1.15,2013-07-17 05:20:00,
2013-07-17 01:30:00,78.3,56.4,30.12,North,350,4.0,4.0,47,0.00,,,0.00,0,Wunderground v.1.15,2013-07-17 05:30:00,
2013-07-17 01:40:00,78.8,57.4,30.12,NNW,340,4.0,4.0,48,0.00,,,0.00,0,Wunderground v.1.15,2013-07-17 05:40:00,
2013-07-17 01:50:00,79.2,60.1,30.12,NNW,348,3.0,3.0,52,0.00,,,0.00,0,Wunderground v.1.15,2013-07-17 05:50:00,
2013-07-17 02:00:00,79.2,61.6,30.12,North,359,3.0,3.0,55,0.00,,,0.00,0,Wunderground v.1.15,2013-07-17 06:00:00,
2013-07-17 02:10:00,79.1,62.1,30.12,North,1,3.0,3.0,56,0.00,,,0.00,0,Wunderground v.1.15,2013-07-17 06:10:00,
2013-07-17 02:20:00,78.8,61.3,30.12,North,1,2.0,2.0,55,0.00,,,0.00,0,Wunderground v.1.15,2013-07-17 06:20:00,
2013-07-17 02:25:00,78.6,60.6,30.12,North,3,2.0,3.0,54,0.00,,,0.00,0,Wunderground v.1.15,2013-07-17 06:25:00,
2013-07-17 02:35:00,78.1,57.4,30.12,SE,128,3.0,3.0,49,0.00,,,0.00,0,Wunderground v.1.15,2013-07-17 06:35:00,
2013-07-17 02:45:00,77.6,53.3,30.12,SE,128,0.0,2.0,43,0.00,,,0.00,0,Wunderground v.1.15,2013-07-17 06:45:00,
2013-07-17 02:50:00,77.4,51.2,30.11,SE,128,0.0,0.0,40,0.00,,,0.00,0,Wunderground v.1.15,2013-07-17 06:50:00,
2013-07-17 03:00:00,77.1,47.3,30.11,SE,128,0.0,0.0,35,0.00,,,0.00,0,Wunderground v.1.15,2013-07-17 07:00:00,
2013-07-17 03:05:00,76.9,45.6,30.11,SE,128,0.0,0.0,33,0.00,,,0.00,0,Wunderground v.1.15,2013-07-17 07:05:00,
2013-07-17 03:15:00,76.6,41.0,30.11,SE,128,0.0,0.0,28,0.00,,,0.00,0,Wunderground v.1.15,2013-07-17 07:15:00,
2013-07-17 03:20:00,76.5,39.0,30.12,SE,128,0.0,0.0,26,0.00,,,0.00,0,Wunderground v.1.15,2013-07-17 07:20:00,
2013-07-17 03:30:00,76.3,33.5,30.12,ESE,111,1.0,4.0,21,0.00,,,0.00,0,Wunderground v.1.15,2013-07-17 07:30:00,
2013-07-17 03:40:00,76.0,29.4,30.12,ESE,111,1.0,2.0,18,0.00,,,0.00,0,Wunderground v.1.15,2013-07-17 07:40:00,
2013-07-17 03:50:00,75.8,26.4,30.12,ESE,111,0.0,0.0,16,0.00,,,0.00,0,Wunderground v.1.15,2013-07-17 07:50:00,
2013-07-17 03:55:00,75.7,23.1,30.12,ESE,111,0.0,0.0,14,0.00,,,0.00,0,Wunderground v.1.15,2013-07-17 07:55:00,
2013-07-17 04:05:00,75.5,19.3,30.12,ESE,111,1.0,1.0,12,0.00,,,0.00,0,Wunderground v.1.15,2013-07-17 08:05:00,
2013-07-17 04:10:00,75.3,17.1,30.12,ESE,111,0.0,0.0,11,0.00,,,0.00,0,Wunderground v.1.15,2013-07-17 08:10:00,
2013-07-17 04:15:00,75.2,12.4,30.12,ESE,111,0.0,0.0,9,0.00,,,0.00,0,Wunderground v.1.15,2013-07-17 08:15:00,
2013-07-17 04:25:00,75.0,3.3,30.12,ESE,111,0.0,0.0,6,0.00,,,0.00,0,Wunderground v.1.15,2013-07-17 08:25:00,
2013-07-17 04:35:00,74.8,-11.3,30.12,ESE,111,0.0,0.0,3,0.00,,,0.00,0,Wunderground v.1.15,2013-07-17 08:35:00,
2013-07-17 04:40:00,74.6,-11.5,30.12,ESE,111,0.0,0.0,3,0.00,,,0.00,0,Wunderground v.1.15,2013-07-17 08:40:00,
2013-07-17 04:45:00,74.6,-32.4,30.12,East,92,1.0,2.0,1,0.00,,,0.00,0,Wunderground v.1.15,2013-07-17 08:45:00,
2013-07-17 04:55:00,74.6,-99.9,30.12,NE,42,2.0,3.0,0,0.00,,,0.00,0,Wunderground v.1.15,2013-07-17 08:55:00,
2013-07-17 05:00:00,74.7,-99.9,30.12,NNE,33,3.0,3.0,0,0.00,,,0.00,0,Wunderground v.1.15,2013-07-17 09:00:00,
2013-07-17 05:10:00,75.0,-99.9,30.13,NNE,19,3.0,4.0,0,0.00,,,0.00,0,Wunderground v.1.15,2013-07-17 09:10:00,
2013-07-17 05:20:00,75.3,-99.9,30.13,North,8,4.0,4.0,0,0.00,,,0.00,0,Wunderground v.1.15,2013-07-17 09:20:00,
2013-07-17 05:30:00,75.5,-99.9,30.13,North,8,3.0,3.0,0,0.00,,,0.00,0,Wunderground v.1.15,2013-07-17 09:30:00,
2013-07-17 05:40:00,75.4,-99.9,30.13,North,8,3.0,4.0,0,0.00,,,0.00,7,Wunderground v.1.15,2013-07-17 09:40:00,
2013-07-17 05:50:00,75.5,-99.9,30.14,North,8,4.0,5.0,0,0.00,,,0.00,14,Wunderground v.1.15,2013-07-17 09:50:00,
2013-07-17 05:55:00,75.5,-99.9,30.14,North,8,3.0,5.0,0,0.00,,,0.00,18,Wunderground v.1.15,2013-07-17 09:55:00,
2013-07-17 06:05:00,75.6,-99.9,30.14,North,10,3.0,5.0,0,0.00,,,0.00,33,Wunderground v.1.15,2013-07-17 10:05:00,
2013-07-17 06:10:00,75.7,-99.9,30.14,North,11,3.0,3.0,0,0.00,,,0.00,42,Wunderground v.1.15,2013-07-17 10:10:00,
2013-07-17 06:15:00,75.8,-99.9,30.14,North,11,3.0,3.0,0,0.00,,,0.00,54,Wunderground v.1.15,2013-07-17 10:15:00,
2013-07-17 06:20:00,75.9,-99.9,30.14,North,11,3.0,3.0,0,0.00,,,0.00,65,Wunderground v.1.15,2013-07-17 10:20:00,
2013-07-17 06:30:00,76.3,-99.9,30.15,NNE,14,3.0,4.0,0,0.00,,,0.00,90,Wunderground v.1.15,2013-07-17 10:30:00,
2013-07-17 06:35:00,76.6,-99.9,30.15,North,10,3.0,4.0,0,0.00,,,0.00,104,Wunderground v.1.15,2013-07-17 10:35:00,
2013-07-17 06:40:00,76.9,-99.9,30.15,NNE,19,3.0,3.0,0,0.00,,,0.00,121,Wunderground v.1.15,2013-07-17 10:40:00,
2013-07-17 06:45:00,77.2,-99.9,30.15,NNE,16,3.0,6.0,0,0.00,,,0.00,139,Wunderground v.1.15,2013-07-17 10:45:00,
2013-07-17 06:55:00,77.8,-99.9,30.15,NNE,24,5.0,5.0,0,0.00,,,0.00,169,Wunderground v.1.15,2013-07-17 10:55:00,
2013-07-17 07:00:00,78.2,-99.9,30.15,NNE,19,4.0,4.0,0,0.00,,,0.00,185,Wunderground v.1.15,2013-07-17 11:00:00,
2013-07-17 07:10:00,78.9,-99.9,30.15,NNE,23,4.0,4.0,0,0.00,,,0.00,216,Wunderground v.1.15,2013-07-17 11:10:00,
2013-07-17 07:20:00,79.6,20.4,30.16,NNE,15,4.0,4.0,11,0.00,,,0.00,246,Wunderground v.1.15,2013-07-17 11:20:00,
2013-07-17 07:25:00,79.7,35.1,30.15,NNE,21,4.0,5.0,20,0.00,,,0.00,260,Wunderground v.1.15,2013-07-17 11:25:00,
2013-07-17 07:30:00,79.6,39.6,30.15,NNE,13,5.0,8.0,24,0.00,,,0.00,274,Wunderground v.1.15,2013-07-17 11:30:00,
2013-07-17 07:40:00,79.7,39.7,30.16,North,11,5.0,5.0,24,0.00,,,0.00,308,Wunderground v.1.15,2013-07-17 11:40:00,
2013-07-17 07:45:00,79.9,37.6,30.16,NNE,12,5.0,6.0,22,0.00,,,0.00,323,Wunderground v.1.15,2013-07-17 11:45:00,
2013-07-17 07:55:00,80.5,42.4,30.15,NNE,22,4.0,5.0,26,0.00,,,0.00,355,Wunderground v.1.15,2013-07-17 11:55:00,
2013-07-17 08:05:00,81.1,53.8,30.15,NNE,14,3.0,6.0,39,0.00,,,0.00,387,Wunderground v.1.15,2013-07-17 12:05:00,
2013-07-17 08:15:00,81.4,56.1,30.16,North,11,4.0,5.0,42,0.00,,,0.00,418,Wunderground v.1.15,2013-07-17 12:15:00,
2013-07-17 08:25:00,81.7,64.0,30.16,NNE,13,4.0,6.0,55,0.00,,,0.00,450,Wunderground v.1.15,2013-07-17 12:25:00,
2013-07-17 08:35:00,82.6,67.3,30.16,North,360,4.0,5.0,60,0.00,,,0.00,475,Wunderground v.1.15,2013-07-17 12:35:00,
2013-07-17 08:40:00,82.9,67.6,30.16,NNE,22,4.0,6.0,60,0.00,,,0.00,492,Wunderground v.1.15,2013-07-17 12:40:00,
2013-07-17 08:50:00,82.7,67.4,30.16,North,1,5.0,6.0,60,0.00,,,0.00,522,Wunderground v.1.15,2013-07-17 12:50:00,
2013-07-17 09:00:00,82.9,68.5,30.16,NNE,26,6.0,6.0,62,0.00,,,0.00,552,Wunderground v.1.15,2013-07-17 13:00:00,
2013-07-17 09:10:00,84.2,72.5,30.16,NNE,23,4.0,5.0,68,0.00,,,0.00,578,Wunderground v.1.15,2013-07-17 13:10:00,
2013-07-17 09:20:00,84.5,73.6,30.16,NNW,345,5.0,5.0,70,0.00,,,0.00,608,Wunderground v.1.15,2013-07-17 13:20:00,
2013-07-17 09:25:00,84.5,74.1,30.16,NNE,19,5.0,5.0,71,0.00,,,0.00,621,Wunderground v.1.15,2013-07-17 13:25:00,
2013-07-17 09:35:00,85.3,74.8,30.16,NNE,23,4.0,5.0,71,0.00,,,0.00,645,Wunderground v.1.15,2013-07-17 13:35:00,
2013-07-17 09:40:00,86.1,75.6,30.16,North,352,3.0,4.0,71,0.00,,,0.00,661,Wunderground v.1.15,2013-07-17 13:40:00,
2013-07-17 09:50:00,87.2,76.6,30.16,NNE,19,3.0,3.0,71,0.00,,,0.00,679,Wunderground v.1.15,2013-07-17 13:50:00,
2013-07-17 09:55:00,87.7,77.1,30.16,SSE,162,2.0,6.0,71,0.00,,,0.00,691,Wunderground v.1.15,2013-07-17 13:55:00,
2013-07-17 10:05:00,85.4,74.9,30.16,SSE,161,5.0,5.0,71,0.00,,,0.00,719,Wunderground v.1.15,2013-07-17 14:05:00,
2013-07-17 10:10:00,84.1,72.8,30.16,SSE,163,5.0,5.0,69,0.00,,,0.00,733,Wunderground v.1.15,2013-07-17 14:10:00,
2013-07-17 10:20:00,83.0,69.6,30.16,SSE,153,5.0,5.0,64,0.00,,,0.00,756,Wunderground v.1.15,2013-07-17 14:20:00,
2013-07-17 10:30:00,82.9,69.9,30.16,SSE,158,6.0,7.0,65,0.00,,,0.00,772,Wunderground v.1.15,2013-07-17 14:30:00,
2013-07-17 10:35:00,82.3,69.8,30.16,SSE,159,7.0,8.0,66,0.00,,,0.00,782,Wunderground v.1.15,2013-07-17 14:35:00,
2013-07-17 10:45:00,82.4,68.1,30.16,ESE,117,8.0,8.0,62,0.00,,,0.00,800,Wunderground v.1.15,2013-07-17 14:45:00,
2013-07-17 10:55:00,83.5,73.1,30.16,ESE,106,7.0,9.0,71,0.00,,,0.00,819,Wunderground v.1.15,2013-07-17 14:55:00,
2013-07-17 11:05:00,83.8,73.8,30.17,SE,134,7.0,8.0,72,0.00,,,0.00,837,Wunderground v.1.15,2013-07-17 15:05:00,
2013-07-17 11:15:00,83.2,73.2,30.16,SE,143,8.0,8.0,72,0.00,,,0.00,853,Wunderground v.1.15,2013-07-17 15:15:00,
2013-07-17 11:20:00,83.3,73.3,30.16,SE,128,7.0,9.0,72,0.00,,,0.00,856,Wunderground v.1.15,2013-07-17 15:20:00,
2013-07-17 11:30:00,82.4,72.5,30.16,SSE,152,8.0,8.0,72,0.00,,,0.00,872,Wunderground v.1.15,2013-07-17 15:30:00,
2013-07-17 11:35:00,82.1,72.2,30.16,SE,132,9.0,9.0,72,0.00,,,0.00,879,Wunderground v.1.15,2013-07-17 15:35:00,
2013-07-17 11:45:00,82.0,72.1,30.16,ESE,118,8.0,11.0,72,0.00,,,0.00,891,Wunderground v.1.15,2013-07-17 15:45:00,
2013-07-17 11:50:00,82.2,72.3,30.16,SSE,151,8.0,9.0,72,0.00,,,0.00,898,Wunderground v.1.15,2013-07-17 15:50:00,
2013-07-17 12:00:00,81.8,71.9,30.16,SSE,157,8.0,8.0,72,0.00,,,0.00,904,Wunderground v.1.15,2013-07-17 16:00:00,
2013-07-17 12:10:00,81.1,71.2,30.16,SSE,152,9.0,9.0,72,0.00,,,0.00,912,Wunderground v.1.15,2013-07-17 16:10:00,
2013-07-17 12:20:00,82.0,72.1,30.15,SSE,148,8.0,8.0,72,0.00,,,0.00,921,Wunderground v.1.15,2013-07-17 16:20:00,
2013-07-17 12:25:00,82.2,72.3,30.15,SSE,159,8.0,13.0,72,0.00,,,0.00,921,Wunderground v.1.15,2013-07-17 16:25:00,
2013-07-17 12:35:00,81.3,71.4,30.15,SSE,159,9.0,9.0,72,0.00,,,0.00,930,Wunderground v.1.15,2013-07-17 16:35:00,
2013-07-17 12:40:00,81.2,71.3,30.15,SSE,148,8.0,8.0,72,0.00,,,0.00,932,Wunderground v.1.15,2013-07-17 16:40:00,
2013-07-17 12:45:00,81.1,71.2,30.15,SE,137,8.0,8.0,72,0.00,,,0.00,928,Wunderground v.1.15,2013-07-17 16:45:00,
2013-07-17 12:55:00,81.6,71.7,30.15,SSE,155,7.0,8.0,72,0.00,,,0.00,930,Wunderground v.1.15,2013-07-17 16:55:00,
2013-07-17 13:00:00,81.2,71.3,30.15,SE,144,7.0,7.0,72,0.00,,,0.00,932,Wunderground v.1.15,2013-07-17 17:00:00,
2013-07-17 13:10:00,81.0,71.1,30.15,SE,136,8.0,8.0,72,0.00,,,0.00,935,Wunderground v.1.15,2013-07-17 17:10:00,
2013-07-17 13:15:00,81.2,71.3,30.15,South,189,8.0,9.0,72,0.00,,,0.00,930,Wunderground v.1.15,2013-07-17 17:15:00,
2013-07-17 13:25:00,83.1,72.7,30.14,South,189,9.0,9.0,71,0.00,,,0.00,916,Wunderground v.1.15,2013-07-17 17:25:00,
2013-07-17 13:30:00,83.8,73.0,30.15,South,186,9.0,9.0,70,0.00,,,0.00,898,Wunderground v.1.15,2013-07-17 17:30:00,
2013-07-17 13:35:00,83.9,72.6,30.14,South,184,9.0,10.0,69,0.00,,,0.00,888,Wunderground v.1.15,2013-07-17 17:35:00,
2013-07-17 13:45:00,83.4,73.0,30.14,SSE,162,9.0,11.0,71,0.00,,,0.00,854,Wunderground v.1.15,2013-07-17 17:45:00,
2013-07-17 13:50:00,82.6,72.2,30.14,South,178,10.0,11.0,71,0.00,,,0.00,874,Wunderground v.1.15,2013-07-17 17:50:00,
2013-07-17 14:00:00,82.6,72.7,30.14,South,182,9.0,9.0,72,0.00,,,0.00,884,Wunderground v.1.15,2013-07-17 18:00:00,
2013-07-17 14:10:00,83.2,72.8,30.13,South,186,7.0,7.0,71,0.00,,,0.00,888,Wunderground v.1.15,2013-07-17 18:10:00,
2013-07-17 14:20:00,82.9,72.9,30.13,South,179,7.0,8.0,72,0.00,,,0.00,875,Wunderground v.1.15,2013-07-17 18:20:00,
2013-07-17 14:25:00,83.1,73.1,30.13,SSW,196,8.0,8.0,72,0.00,,,0.00,868,Wunderground v.1.15,2013-07-17 18:25:00,
2013-07-17 14:35:00,83.7,73.7,30.13,SSW,211,7.0,8.0,72,0.00,,,0.00,856,Wunderground v.1.15,2013-07-17 18:35:00,
2013-07-17 14:45:00,83.7,73.7,30.13,SSW,203,7.0,10.0,72,0.00,,,0.00,837,Wunderground v.1.15,2013-07-17 18:45:00,
2013-07-17 14:55:00,82.8,73.3,30.13,South,176,7.0,9.0,73,0.00,,,0.00,821,Wunderground v.1.15,2013-07-17 18:55:00,
2013-07-17 15:00:00,83.3,73.3,30.12,SSW,204,7.0,7.0,72,0.00,,,0.00,812,Wunderground v.1.15,2013-07-17 19:00:00,
2013-07-17 15:05:00,83.9,73.9,30.12,South,180,6.0,8.0,72,0.00,,,0.00,802,Wunderground v.1.15,2013-07-17 19:05:00,
2013-07-17 15:15:00,83.0,73.0,30.12,SSW,194,8.0,8.0,72,0.00,,,0.00,786,Wunderground v.1.15,2013-07-17 19:15:00,
2013-07-17 15:20:00,83.1,73.5,30.12,SSW,209,7.0,7.0,73,0.00,,,0.00,777,Wunderground v.1.15,2013-07-17 19:20:00,
2013-07-17 15:30:00,82.8,72.8,30.12,SSW,194,8.0,9.0,72,0.00,,,0.00,756,Wunderground v.1.15,2013-07-17 19:30:00,
2013-07-17 15:40:00,83.0,73.4,30.11,SSW,196,8.0,8.0,73,0.00,,,0.00,733,Wunderground v.1.15,2013-07-17 19:40:00,
2013-07-17 15:45:00,82.8,73.3,30.11,SSW,192,8.0,8.0,73,0.00,,,0.00,721,Wunderground v.1.15,2013-07-17 19:45:00,
2013-07-17 15:55:00,82.7,73.2,30.11,SSW,192,8.0,8.0,73,0.00,,,0.00,696,Wunderground v.1.15,2013-07-17 19:55:00,
2013-07-17 16:05:00,82.3,72.8,30.11,South,183,9.0,9.0,73,0.00,,,0.00,670,Wunderground v.1.15,2013-07-17 20:05:00,
2013-07-17 16:15:00,82.2,72.3,30.10,South,180,9.0,10.0,72,0.00,,,0.00,645,Wunderground v.1.15,2013-07-17 20:15:00,
2013-07-17 16:25:00,81.7,71.0,30.10,South,182,9.0,9.0,70,0.00,,,0.00,619,Wunderground v.1.15,2013-07-17 20:25:00,
2013-07-17 16:35:00,82.2,71.0,30.09,SSW,203,8.0,11.0,69,0.00,,,0.00,592,Wunderground v.1.15,2013-07-17 20:35:00,
2013-07-17 16:40:00,82.1,70.5,30.09,South,190,8.0,8.0,68,0.00,,,0.00,580,Wunderground v.1.15,2013-07-17 20:40:00,
2013-07-17 16:50:00,82.3,71.1,30.09,South,188,8.0,9.0,69,0.00,,,0.00,552,Wunderground v.1.15,2013-07-17 20:50:00,
2013-07-17 16:55:00,82.6,72.2,30.09,South,181,8.0,9.0,71,0.00,,,0.00,540,Wunderground v.1.15,2013-07-17 20:55:00,
2013-07-17 17:00:00,82.7,72.7,30.08,SSW,196,8.0,8.0,72,0.00,,,0.00,520,Wunderground v.1.15,2013-07-17 21:00:00,
2013-07-17 17:10:00,82.5,72.1,30.08,SSW,203,7.0,10.0,71,0.00,,,0.00,494,Wunderground v.1.15,2013-07-17 21:10:00,
2013-07-17 17:20:00,81.9,72.0,30.08,SSW,202,8.0,8.0,72,0.00,,,0.00,459,Wunderground v.1.15,2013-07-17 21:20:00,
2013-07-17 17:25:00,82.0,71.7,30.08,SSW,197,7.0,8.0,71,0.00,,,0.00,443,Wunderground v.1.15,2013-07-17 21:25:00,
2013-07-17 17:35:00,82.0,71.2,30.08,SSW,192,8.0,8.0,70,0.00,,,0.00,413,Wunderground v.1.15,2013-07-17 21:35:00,
2013-07-17 17:45:00,81.5,70.8,30.08,SSW,198,8.0,10.0,70,0.00,,,0.00,383,Wunderground v.1.15,2013-07-17 21:45:00,
2013-07-17 17:55:00,81.6,70.4,30.08,SW,218,7.0,8.0,69,0.00,,,0.00,353,Wunderground v.1.15,2013-07-17 21:55:00,
2013-07-17 18:05:00,81.4,70.2,30.08,SSW,209,7.0,12.0,69,0.00,,,0.00,320,Wunderground v.1.15,2013-07-17 22:05:00,
2013-07-17 18:15:00,81.7,69.7,30.07,SSW,207,6.0,7.0,67,0.00,,,0.00,294,Wunderground v.1.15,2013-07-17 22:15:00,
2013-07-17 18:20:00,81.6,68.7,30.08,SW,221,6.0,8.0,65,0.00,,,0.00,281,Wunderground v.1.15,2013-07-17 22:20:00,
2013-07-17 18:30:00,81.7,67.9,30.07,SW,223,4.0,4.0,63,0.00,,,0.00,250,Wunderground v.1.15,2013-07-17 22:30:00,
2013-07-17 18:35:00,81.8,68.0,30.07,SW,225,4.0,4.0,63,0.00,,,0.00,232,Wunderground v.1.15,2013-07-17 22:35:00,
2013-07-17 18:45:00,81.4,66.7,30.07,WSW,245,5.0,6.0,61,0.00,,,0.00,207,Wunderground v.1.15,2013-07-17 22:45:00,
2013-07-17 18:55:00,80.9,65.7,30.07,SSW,202,5.0,6.0,60,0.00,,,0.00,171,Wunderground v.1.15,2013-07-17 22:55:00,
2013-07-17 19:05:00,80.8,65.1,30.07,SSW,198,5.0,7.0,59,0.00,,,0.00,135,Wunderground v.1.15,2013-07-17 23:05:00,
2013-07-17 19:15:00,80.4,62.8,30.07,SW,217,5.0,5.0,55,0.00,,,0.00,54,Wunderground v.1.15,2013-07-17 23:15:00,
2013-07-17 19:25:00,80.1,58.6,30.07,SSW,204,4.0,5.0,48,0.00,,,0.00,46,Wunderground v.1.15,2013-07-17 23:25:00,
2013-07-17 19:35:00,79.8,53.3,30.07,SSW,204,4.0,5.0,40,0.00,,,0.00,39,Wunderground v.1.15,2013-07-17 23:35:00,
2013-07-17 19:45:00,79.5,45.3,30.07,SW,220,5.0,5.0,30,0.00,,,0.00,30,Wunderground v.1.15,2013-07-17 23:45:00,
2013-07-17 19:55:00,79.2,37.1,30.06,SW,227,5.0,7.0,22,0.00,,,0.00,21,Wunderground v.1.15,2013-07-17 23:55:00,
2013-07-17 20:05:00,79.0,25.7,30.06,SSW,208,5.0,6.0,14,0.00,,,0.00,12,Wunderground v.1.15,2013-07-18 00:05:00,
2013-07-17 20:10:00,78.9,17.7,30.06,WSW,241,5.0,6.0,10,0.00,,,0.00,7,Wunderground v.1.15,2013-07-18 00:10:00,
2013-07-17 20:20:00,78.5,-2.9,30.06,WSW,238,5.0,8.0,4,0.00,,,0.00,0,Wunderground v.1.15,2013-07-18 00:20:00,
2013-07-17 20:25:00,78.4,-99.9,30.07,SW,218,5.0,8.0,0,0.00,,,0.00,0,Wunderground v.1.15,2013-07-18 00:25:00,
2013-07-17 20:35:00,78.2,-99.9,30.06,SSW,198,5.0,5.0,0,0.00,,,0.00,0,Wunderground v.1.15,2013-07-18 00:35:00,
2013-07-17 20:40:00,78.0,-99.9,30.06,SSW,209,5.0,5.0,0,0.00,,,0.00,0,Wunderground v.1.15,2013-07-18 00:40:00,
2013-07-17 20:50:00,77.7,-99.9,30.06,SW,219,5.0,6.0,0,0.00,,,0.00,0,Wunderground v.1.15,2013-07-18 00:50:00,
2013-07-17 21:00:00,77.4,-99.9,30.07,SW,218,6.0,7.0,0,0.00,,,0.00,0,Wunderground v.1.15,2013-07-18 01:00:00,
2013-07-17 21:10:00,77.2,-99.9,30.06,SW,218,5.0,5.0,0,0.00,,,0.00,0,Wunderground v.1.15,2013-07-18 01:10:00,
2013-07-17 21:20:00,77.1,-99.9,30.06,SSW,213,5.0,5.0,0,0.00,,,0.00,0,Wunderground v.1.15,2013-07-18 01:20:00,
2013-07-17 21:25:00,77.0,-99.9,30.07,SW,215,4.0,8.0,0,0.00,,,0.00,0,Wunderground v.1.15,2013-07-18 01:25:00,
2013-07-17 21:30:00,76.9,-99.9,30.06,SSW,213,5.0,5.0,0,0.00,,,0.00,0,Wunderground v.1.15,2013-07-18 01:30:00,
2013-07-17 21:40:00,76.8,-99.9,30.06,SW,217,4.0,4.0,0,0.00,,,0.00,0,Wunderground v.1.15,2013-07-18 01:40:00,
2013-07-17 21:50:00,76.6,-99.9,30.07,SW,216,4.0,6.0,0,0.00,,,0.00,0,Wunderground v.1.15,2013-07-18 01:50:00,
2013-07-17 22:00:00,76.5,-99.9,30.06,SW,214,5.0,5.0,0,0.00,,,0.00,0,Wunderground v.1.15,2013-07-18 02:00:00,
2013-07-17 22:10:00,76.5,-99.9,30.06,SSW,208,4.0,4.0,0,0.00,,,0.00,0,Wunderground v.1.15,2013-07-18 02:10:00,
2013-07-17 22:20:00,76.7,-99.9,30.07,SW,226,4.0,4.0,0,0.00,,,0.00,0,Wunderground v.1.15,2013-07-18 02:20:00,
2013-07-17 22:25:00,76.7,-99.9,30.07,WSW,239,4.0,4.0,0,0.00,,,0.00,0,Wunderground v.1.15,2013-07-18 02:25:00,
2013-07-17 22:35:00,76.7,-99.9,30.07,SW,229,5.0,7.0,0,0.00,,,0.00,0,Wunderground v.1.15,2013-07-18 02:35:00,
2013-07-17 22:40:00,76.7,-99.9,30.07,SW,236,5.0,5.0,0,0.00,,,0.00,0,Wunderground v.1.15,2013-07-18 02:40:00,
2013-07-17 22:50:00,76.8,-99.9,30.07,WSW,237,4.0,4.0,0,0.00,,,0.00,0,Wunderground v.1.15,2013-07-18 02:50:00,
2013-07-17 22:55:00,76.9,-99.9,30.06,SW,221,4.0,4.0,0,0.00,,,0.00,0,Wunderground v.1.15,2013-07-18 02:55:00,
2013-07-17 23:05:00,77.1,-99.9,30.06,SSW,203,5.0,6.0,0,0.00,,,0.00,0,Wunderground v.1.15,2013-07-18 03:05:00,
2013-07-17 23:10:00,77.1,-99.9,30.06,WSW,241,5.0,7.0,0,0.00,,,0.00,0,Wunderground v.1.15,2013-07-18 03:10:00,
2013-07-17 23:15:00,77.1,-99.9,30.06,West,269,5.0,7.0,0,0.00,,,0.00,0,Wunderground v.1.15,2013-07-18 03:15:00,
2013-07-17 23:25:00,77.0,-99.9,30.06,WSW,237,5.0,6.0,0,0.00,,,0.00,0,Wunderground v.1.15,2013-07-18 03:25:00,
2013-07-17 23:35:00,76.9,-99.9,30.06,SW,235,4.0,8.0,0,0.00,,,0.00,0,Wunderground v.1.15,2013-07-18 03:35:00,
2013-07-17 23:40:00,76.9,-99.9,30.05,SW,234,4.0,6.0,0,0.00,,,0.00,0,Wunderground v.1.15,2013-07-18 03:40:00,
2013-07-17 23:50:00,76.9,-99.9,30.05,WSW,239,5.0,5.0,0,0.00,,,0.00,0,Wunderground v.1.15,2013-07-18 03:50:00,
2013-07-17 23:55:00,76.9,-99.9,30.05,SSW,212,5.0,6.0,0,0.00,,,0.00,0,Wunderground v.1.15,2013-07-18 03:55:00,